Location: Stoke Bliss
(52.2667°N, 2.5167°W)
Time: 21:06:15
(UTC+00:00)

Cosmos 2333 Rocket - Pass Details

Date: 03 March 2021
Orbit: 837 x 864 km, 70.8° (Epoch: 15 April)

Event Time Altitude Azimuth Distance (km) Brightness Sun altitude
Rises 22:16:33 0° 253° (WSW) 3,407 5.6 -37.5°
Reaches altitude 10° 22:19:23 10° 265° (W) 2,479 4.9 -37.8°
Maximum altitude 22:24:09 27° 322° (NW) 1,602 4.1 -38.2°
Drops below altitude 10° 22:28:59 10° 19° (NNE) 2,503 4.9 -38.7°
Sets 22:31:52 0° 32° (NNE) 3,447 5.6 -38.9°
